This is the latest recevied weather packets stored in our database for station/object DJ4RO-13. If no packets are shown the sender has not sent any weather packets the latest 1 day(s).
| Time | Temp. | Humidity | Pressure | Rain* | Wind** | Luminosity | Snow |
|---|---|---|---|---|---|---|---|
| 1778018402 | 11.11° C | 95% | 1005.1 hPa | 0 mm | 0 m/s | - | - |
| 1778017802 | 11.67° C | 95% | 1005.4 hPa | 0 mm | 0.45 m/s, 78° | - | - |
| 1778017202 | 11.67° C | 95% | 1005.1 hPa | 0 mm | 0.89 m/s, 334° | - | - |
| 1778016602 | 11.67° C | 94% | 1005.5 hPa | 0 mm | 0.45 m/s, 326° | - | - |
| 1778016002 | 11.67° C | 94% | 1005.5 hPa | 0 mm | 0.89 m/s, 343° | - | - |
| 1778015402 | 11.67° C | 94% | 1005.5 hPa | 0 mm | 0 m/s | - | - |
| 1778014802 | 11.67° C | 94% | 1005.6 hPa | 0 mm | 0.45 m/s, 321° | - | - |
| 1778014202 | 11.67° C | 94% | 1005.5 hPa | 0 mm | 0.89 m/s, 260° | - | - |
| 1778013602 | 11.67° C | 94% | 1005.7 hPa | 0 mm | 0.89 m/s, 346° | - | - |
| 1778013002 | 11.67° C | 94% | 1005.6 hPa | 0 mm | 0 m/s | - | - |
| 1778012402 | 11.67° C | 94% | 1005.4 hPa | 0 mm | 0.45 m/s, 325° | - | - |
| 1778011802 | 11.67° C | 94% | 1005.4 hPa | 0 mm | 0 m/s | - | - |
| 1778011202 | 12.22° C | 94% | 1005.6 hPa | 0 mm | 0 m/s | - | - |
| 1778010602 | 12.22° C | 93% | 1005.5 hPa | 0 mm | 0 m/s | - | - |
| 1778010002 | 12.22° C | 93% | 1005.4 hPa | 0 mm | 0.89 m/s, 325° | - | - |
| 1778009402 | 12.78° C | 92% | 1005.3 hPa | 0 mm | 0 m/s | - | - |
| 1778008802 | 12.78° C | 92% | 1005.6 hPa | 0 mm | 0.45 m/s, 335° | - | - |
| 1778008202 | 12.78° C | 92% | 1005.3 hPa | 0 mm | 0.45 m/s, 24° | - | - |
| 1778007602 | 12.78° C | 91% | 1005.4 hPa | 0 mm | 0.45 m/s, 318° | - | - |
| 1778007002 | 13.33° C | 91% | 1005.2 hPa | 0 mm | 0.89 m/s, 19° | - | - |
| 1778006402 | 13.33° C | 90% | 1005.2 hPa | 0 mm | 0.89 m/s, 330° | - | - |
| 1778005802 | 13.89° C | 89% | 1005.3 hPa | 0 mm | 0.89 m/s, 331° | - | - |
| 1778005202 | 13.89° C | 89% | 1005.2 hPa | 0 mm | 0 m/s | - | - |
| 1778004602 | 14.44° C | 88% | 1005.3 hPa | 0 mm | 0.45 m/s, 35° | - | - |
| 1778004002 | 15° C | 87% | 1005.2 hPa | 0 mm | 0 m/s | - | - |
* Rain latest hour (hover to see other rain measurements)
** Current wind speed in m/s (hover to see current wind gust speed)